{"data":{"norad_id":51998,"epoch":"2026-09-19T06:42:34.803936Z","epoch_age_seconds":160846,"freshness":"FRESH","line1":"1 51998U 22025AU  26262.27956949 -.00000899  00000+0 -15475-4 0  9995","line2":"2 51998  53.1602 215.6724 0001386  81.1560 278.9599 15.34392180250346","mean_motion":15.3439218,"eccentricity":0.0001386,"inclination_deg":53.1602,"raan_deg":215.6724,"arg_perigee_deg":81.156,"mean_anomaly_deg":278.9599,"bstar":-1.5475e-5,"rev_number":25034,"period_min":93.848236374614,"perigee_km":461.77833931507,"apogee_km":463.67462667255,"semimajor_km":6840.8634829938,"source":"CELESTRAK","updated_at":"2026-09-20T09:00:39.982982Z"}}